Regional Weather Roundup
Issued by NWS

Home | Current Version | Previous Version | Graphics & Text | Print | Product List | Glossary Off
Versions: 1 2 3 4 5 6 7 8 9 10 11 12 13 14 15 16 17 18 19 20 21 22 23 24 25 26 27 28 29 30 31 32 33 34 35 36 37 38 39 40 41 42 43 44 45 46 47 48 49 50

000
ASUS43 KMKX 261111
RWRWI

WISCONSIN REGIONAL WEATHER ROUNDUP
NATIONAL WEATHER SERVICE MILWAUKEE/SULLIVAN WI
600 AM CDT MON JUN 26 2017

NOTE: "FAIR" INDICATES FEW OR NO CLOUDS BELOW 12,000 FEET WITH NO
SIGNIFICANT WEATHER AND/OR OBSTRUCTIONS TO VISIBILITY.

WIZ001-002-006>008-014>016-023>028-261200-
NORTHWEST WISCONSIN

CITY           SKY/WX    TMP DP  RH WIND       PRES   REMARKS
SUPERIOR ARPT  NOT AVBL
ASHLAND        LGT RAIN  47  45  93 NW8       30.10R
HAYWARD        LGT RAIN  45  43  93 CALM      30.11F
SIREN          PTCLDY    40  39  97 CALM      30.15S
CUMBERLAND     PTCLDY    41  41 100 NW3       30.14R
RICE LAKE      PTCLDY    44  42  94 CALM      30.15S
CHETEK         PTCLDY    45  44  96 CALM      30.14R
LADYSMITH      CLOUDY    46  44  91 W7        30.13R
EAU CLAIRE     CLEAR     45  44  97 CALM      30.13R
MENOMONIE      CLEAR     46  44  91 W6        30.14S
NEW RICHMOND   CLEAR     44  43  97 W3        30.16S
OSCEOLA        CLEAR     42  42 100 CALM      30.19S
$$

WIZ003>005-009-010-017-018-261200-
NORTH CENTRAL WISCONSIN

CITY           SKY/WX    TMP DP  RH WIND       PRES   REMARKS
MANITOWISH WTR DRIZZLE   44  44 100 NW7       30.03S
ARBOR VITAE    CLOUDY    46  43  92 NW9G17    30.02S
WOODRUFF       CLOUDY    46  43  92 NW9G17    30.02S
RHINELANDER    CLOUDY    46  44  93 W10       30.03R
EAGLE RIVER    CLOUDY    46  45  97 NW6       30.01S
LAND O LAKES   CLOUDY    46  44  94 NW8       30.02R
PHILLIPS       CLOUDY    45  43  93 W5        30.07S
TOMAHAWK       NOT AVBL
MEDFORD        PTCLDY    44  42  93 NW7       30.08S
MERRILL        CLOUDY    47  46  96 W7        30.06S
$$

WIZ029-030-035-036-043>047-261200-
CENTRAL WISCONSIN

CITY           SKY/WX    TMP DP  RH WIND       PRES   REMARKS
WAUSAU         CLOUDY    46  44  93 W12       30.05S
MOSINEE        PTCLDY    45  45 100 W8        30.07S
MARSHFIELD     CLEAR     46  43  89 W7        30.08S
STEVENS POINT  CLEAR     46  45  97 W6        30.07S
WAUPACA        CLEAR     50  48  93 W9        30.06S
WAUTOMA        CLEAR     49  46  90 W8        30.09R
WISC RAPIDS    CLEAR     47  44  90 W8        30.10S
CAMP DOUGLAS   CLEAR     43  42  97 W8        30.10S
$$

WIZ011>013-019>022-031-037>040-048>050-261200-
NORTHEAST WISCONSIN

CITY           SKY/WX    TMP DP  RH WIND       PRES   REMARKS
ANTIGO         PTCLDY    45  44  95 W10       30.03S
SHAWANO        CLEAR     50  46  87 W9        30.04R
OCONTO         CLEAR     49  46  91 W10       30.01S
STURGEON BAY     N/A     52  47  83 W12         N/A
GREEN BAY      CLEAR     51  50  96 W9        30.04R
MANITOWOC      CLEAR     52  47  83 W10       30.04R
APPLETON       PTCLDY    46  46 100 W8        30.04S
CLINTONVILLE   MOCLDY    46  45  93 W7        30.05R
OSHKOSH        CLEAR     50  46  86 W6        30.06R
$$

WIZ032>034-041-042-053>061-261200-
SOUTHWEST WISCONSIN

CITY           SKY/WX    TMP DP  RH WIND       PRES   REMARKS
LA CROSSE      CLEAR     53  48  83 CALM      30.13R
SPARTA         CLEAR     41  41 100 CALM      30.13R
VIROQUA        CLEAR     47  46  95 NW5       30.13R
BOSCOBEL       MOCLDY    48  46  93 SW3       30.13R
PRAIRIE DU CHI PTCLDY    52  45  76 NW3       30.14R
PLATTEVILLE    PTCLDY    49  47  92 W6        30.14R
$$

WIZ056-057-062-063-064-067-068-261200-
SOUTH CENTRAL WISCONSIN

CITY           SKY/WX    TMP DP  RH WIND       PRES   REMARKS
REEDSBURG      MOCLDY    47  47 100 CALM      30.10S
BARABOO/DELLS  MOCLDY    48  46  91 CALM      30.10S
LONE ROCK      CLEAR     46  44  93 CALM      30.12R
MINERAL POINT  CLEAR     50  46  87 W5        30.12S
MADISON        PTCLDY    51  48  89 CALM      30.10R
MIDDLETON      CLEAR     50  49  95 CALM      30.11R
WATERTOWN      NOT AVBL
MONROE         PTCLDY    50  45  81 W12       30.12R
JANESVILLE     MOCLDY    50  50 100 CALM      30.11R
$$

WIZ051-052-058>065-066-070>072-261200-
SOUTHEAST WISCONSIN

CITY           SKY/WX    TMP DP  RH WIND       PRES   REMARKS
MILWAUKEE      PTCLDY    55  48  77 W7        30.08R
WAUKESHA       CLEAR     48  46  93 W6        30.10R
MILWAUKEE/TIMM PTCLDY    52  45  76 W7        30.09R
RACINE         CLEAR     53  48  83 W5        30.10R
KENOSHA        CLEAR     51  49  92 W6        30.10R
FOND DU LAC    CLEAR     51  45  79 W9        30.07R
SHEBOYGAN      CLEAR     51  49  92 W9        30.05R
WEST BEND      PTCLDY    50  46  87 W6        30.07S
JUNEAU         CLEAR     48  46  90 CALM      30.09S
$$

LSZ147-162-261200-
LAKE SUPERIOR

STATION/POSITION TIME  TEMP    WIND        PRES    WAVE
                       AIR SEA DIR/SP/G            HT/PER
                 (UTC) (F)     (DEG/KT/KT) (MB)    (FT/S)
W MID LAKE BUOY  1050   43 39  290/ 12/ 14 1017.4R   2/ 4
DEVILS ISLAND    1100   49     290/ 13/ 16 1019.1R
SAXON HARBOR     1030   51     320/ 18/ 21 1017.9R
$$

LMZ867-665-643>646-261200-
LAKE MICHIGAN

STATION/POSITION TIME  TEMP    WIND        PRES    WAVE
                       AIR SEA DIR/SP/G            HT/PER
                 (UTC) (F)     (DEG/KT/KT) (MB)    (FT/S)
CHAMBERS ISLAND  1030   51     230/  5/ 11 1014.9R
S GREEN BAY BUOY 1100   53     260/ 16/ 19 1015.8
N MID LAKE BUOY  1050   55 57  360/  6/  8 1014.7R   1/ 3
NORTHPORT PIER   1040   54     290/  6/ 12 1014.6S
KEWAUNEE LAKESHO 1048   51     270/  7/ 11 1015.8R
SHEBOYGAN LAKESH 1100   53     260/ 11/ 13 1017.4R
PORT WASHINGTON  1040   54     270/  6/ 10 1019.0R
ATWATER BUOY     0909   56 56  260/  8/ 10 1017.9R
MILWAUKEE LAKESH 1050   56     280/  6/  8   N/A
S MID LAKE BUOY  1050   60 61  310/ 16/ 19 1018.2R   3/ 4
KENOSHA   LAKESH 1100   57     250/  8/ 10 1019.0
$$

TC  - TEMPERATURE IN CELSIUS
VSB - VISIBILITY IN STATUTE MILES
WCI - WIND CHILL INDEX
HX  - HEAT INDEX




USA.gov is the U.S. government's official web portal to all federal, state and local government web resources and services.